When you browse on this site, cookies collect data to enhance your experience and personalize the content and advertising you see.
Visit our Privacy Policy to learn more. By continuing to use the site, you agree to this use of cookies and data.
  • In Romania
  • List of Countries
  • For 7 days
  • Water Temperature
  • Satellite Maps
  • Weather Map
  • Weather Widgets
  • user-avatar
    Login

    Hourly Weather Dublin

    Today, 18 November, Sunday

    Time Temperature Precipitation Wind Pressure Humidity
    00:00 +5°C° 0 mm 6 mps 752 mmHg 80%
    01:00 +5°C° 0 mm 6 mps 752 mmHg 80%
    02:00 +4°C° 0 mm 6 mps 752 mmHg 79%
    03:00 +4°C° 0 mm 6 mps 752 mmHg 79%
    04:00 +4°C° 0 mm 6 mps 753 mmHg 80%
    05:00 +4°C° 0 mm 6 mps 753 mmHg 80%
    06:00 +5°C° 0 mm 5 mps 753 mmHg 85%
    07:00 +5°C° 0 mm 5 mps 753 mmHg 83%
    08:00 +5°C° 0 mm 5 mps 753 mmHg 81%
    09:00 +5°C° 0 mm 6 mps 754 mmHg 80%
    10:00 +7°C° 0 mm 6 mps 754 mmHg 75%
    11:00 +8°C° 0 mm 6 mps 754 mmHg 71%
    12:00 +9°C° 0 mm 5 mps 754 mmHg 65%
    13:00 +9°C° 0 mm 5 mps 754 mmHg 66%
    14:00 +8°C° 0 mm 5 mps 753 mmHg 67%
    15:00 +8°C° 0 mm 6 mps 753 mmHg 68%
    16:00 +7°C° 0 mm 6 mps 753 mmHg 70%
    17:00 +5°C° 0 mm 6 mps 753 mmHg 72%
    18:00 +5°C° 0 mm 6 mps 753 mmHg 73%
    19:00 +5°C° 0 mm 6 mps 754 mmHg 74%
    20:00 +5°C° 0 mm 6 mps 754 mmHg 75%
    21:00 +5°C° 0 mm 6 mps 754 mmHg 76%
    22:00 +4°C° 0 mm 6 mps 753 mmHg 75%
    23:00 +4°C° 0 mm 6 mps 753 mmHg 75%

    Tomorrow, 19 November, Monday

    Time Temperature Precipitation Wind Pressure Humidity
    00:00 +4°C° 0 mm 6 mps 753 mmHg 75%
    01:00 +4°C° 0 mm 6 mps 753 mmHg 75%
    02:00 +4°C° 0 mm 6 mps 753 mmHg 74%
    03:00 +4°C° 0 mm 6 mps 752 mmHg 73%
    04:00 +4°C° 0 mm 6 mps 752 mmHg 76%
    05:00 +4°C° 0 mm 6 mps 752 mmHg 79%
    06:00 +4°C° 0 mm 6 mps 752 mmHg 82%
    07:00 +4°C° 0 mm 6 mps 752 mmHg 84%
    08:00 +4°C° 0 mm 7 mps 752 mmHg 86%
    09:00 +4°C° 0 mm 7 mps 752 mmHg 88%
    10:00 +5°C° 0 mm 7 mps 752 mmHg 83%
    11:00 +5°C° 0 mm 7 mps 752 mmHg 78%
    12:00 +5°C° 0 mm 8 mps 752 mmHg 74%
    13:00 +5°C° 0 mm 7 mps 751 mmHg 74%
    14:00 +5°C° 0 mm 7 mps 751 mmHg 74%
    15:00 +5°C° 0 mm 7 mps 751 mmHg 74%
    16:00 +5°C° 0 mm 7 mps 751 mmHg 75%
    17:00 +5°C° 0 mm 7 mps 751 mmHg 76%
    18:00 +5°C° 0 mm 7 mps 750 mmHg 76%
    19:00 +5°C° 0 mm 7 mps 750 mmHg 76%
    20:00 +4°C° 0 mm 7 mps 750 mmHg 77%
    21:00 +4°C° 0 mm 7 mps 750 mmHg 77%
    22:00 +4°C° 0.1 mm 7 mps 750 mmHg 77%
    23:00 +4°C° 0.1 mm 7 mps 750 mmHg 76%

    Day after tomorrow, 20 November, Tuesday

    Time Temperature Precipitation Wind Pressure Humidity
    00:00 +4°C° 0.1 mm 7 mps 749 mmHg 76%
    01:00 +4°C° 0.1 mm 8 mps 749 mmHg 77%
    02:00 +4°C° 0.1 mm 8 mps 749 mmHg 77%
    03:00 +4°C° 0.1 mm 8 mps 748 mmHg 78%
    04:00 +4°C° 0.1 mm 8 mps 748 mmHg 79%
    05:00 +4°C° 0.1 mm 8 mps 747 mmHg 80%
    06:00 +4°C° 0.1 mm 8 mps 747 mmHg 81%
    07:00 +4°C° 0.3 mm 8 mps 747 mmHg 81%
    08:00 +4°C° 0.3 mm 8 mps 747 mmHg 82%
    09:00 +3°C° 0.3 mm 9 mps 747 mmHg 82%
    10:00 +3°C° 0.4 mm 9 mps 746 mmHg 80%
    11:00 +3°C° 0.4 mm 9 mps 746 mmHg 79%
    12:00 +5°C° 0.4 mm 9 mps 745 mmHg 77%
    13:00 +5°C° 0.4 mm 9 mps 745 mmHg 78%
    14:00 +4°C° 0.4 mm 8 mps 744 mmHg 79%
    15:00 +4°C° 0.4 mm 8 mps 744 mmHg 80%
    16:00 +4°C° 0.4 mm 8 mps 744 mmHg 81%
    17:00 +4°C° 0.4 mm 8 mps 743 mmHg 82%
    18:00 +2°C° 0.4 mm 8 mps 743 mmHg 83%
    19:00 +2°C° 0.5 mm 8 mps 743 mmHg 83%
    20:00 +2°C° 0.5 mm 9 mps 742 mmHg 83%
    21:00 +2°C° 0.5 mm 9 mps 742 mmHg 83%
    22:00 +2°C° 0.6 mm 8 mps 742 mmHg 84%
    23:00 +2°C° 0.6 mm 8 mps 742 mmHg 85%

    21 November, Wednesday

    Time Temperature Precipitation Wind Pressure Humidity
    00:00 +3°C° 0.6 mm 7 mps 741 mmHg 86%
    01:00 +3°C° 0.7 mm 7 mps 741 mmHg 87%
    02:00 +3°C° 0.7 mm 6 mps 740 mmHg 88%
    03:00 +3°C° 0.7 mm 6 mps 740 mmHg 89%
    04:00 +3°C° 0.9 mm 5 mps 739 mmHg 89%
    05:00 +3°C° 0.9 mm 5 mps 739 mmHg 90%
    06:00 +4°C° 0.9 mm 4 mps 739 mmHg 91%
    07:00 +4°C° 0.8 mm 4 mps 739 mmHg 91%
    08:00 +4°C° 0.8 mm 4 mps 739 mmHg 91%
    09:00 +4°C° 0.8 mm 4 mps 739 mmHg 91%
    10:00 +4°C° 0.4 mm 4 mps 739 mmHg 88%
    11:00 +4°C° 0.4 mm 4 mps 739 mmHg 85%
    12:00 +5°C° 0.4 mm 5 mps 739 mmHg 82%
    13:00 +3°C° 0.3 mm 5 mps 739 mmHg 82%
    14:00 +3°C° 0.3 mm 5 mps 740 mmHg 82%
    15:00 +3°C° 0.3 mm 5 mps 740 mmHg 82%
    16:00 +3°C° 0.2 mm 5 mps 740 mmHg 84%
    17:00 +2°C° 0.2 mm 5 mps 741 mmHg 87%
    18:00 +1°C° 0.2 mm 6 mps 741 mmHg 89%
    19:00 +2°C° 0.1 mm 6 mps 742 mmHg 89%
    20:00 +2°C° 0.1 mm 6 mps 743 mmHg 89%
    21:00 +2°C° 0.1 mm 7 mps 743 mmHg 89%
    22:00 +3°C° 0.2 mm 7 mps 744 mmHg 88%
    23:00 +2°C° 0.2 mm 8 mps 744 mmHg 87%

    22 November, Thursday

    Time Temperature Precipitation Wind Pressure Humidity
    00:00 +4°C° 0.2 mm 8 mps 744 mmHg 86%
    01:00 +4°C° 0.1 mm 8 mps 745 mmHg 87%
    02:00 +4°C° 0.1 mm 7 mps 745 mmHg 87%
    03:00 +4°C° 0.1 mm 7 mps 745 mmHg 87%
    04:00 +4°C° 0 mm 6 mps 745 mmHg 89%
    05:00 +3°C° 0 mm 6 mps 746 mmHg 90%
    06:00 +3°C° 0 mm 5 mps 746 mmHg 91%
    07:00 +3°C° 0 mm 5 mps 746 mmHg 90%
    08:00 +3°C° 0 mm 5 mps 747 mmHg 89%
    09:00 +4°C° 0 mm 4 mps 747 mmHg 88%
    10:00 +4°C° 0 mm 4 mps 747 mmHg 84%
    11:00 +5°C° 0 mm 4 mps 747 mmHg 80%
    12:00 +5°C° 0 mm 4 mps 747 mmHg 77%
    13:00 +5°C° 0.1 mm 4 mps 747 mmHg 78%
    14:00 +5°C° 0.1 mm 4 mps 746 mmHg 80%
    15:00 +5°C° 0.1 mm 4 mps 746 mmHg 81%
    16:00 +4°C° 0.1 mm 4 mps 746 mmHg 84%
    17:00 +4°C° 0.1 mm 4 mps 746 mmHg 87%
    18:00 +3°C° 0.1 mm 4 mps 746 mmHg 90%
    19:00 +3°C° 0.1 mm 4 mps 746 mmHg 90%
    20:00 +3°C° 0.1 mm 4 mps 746 mmHg 90%
    21:00 +3°C° 0.1 mm 4 mps 746 mmHg 91%
    22:00 +3°C° 0 mm 4 mps 746 mmHg 90%
    23:00 +3°C° 0 mm 4 mps 747 mmHg 89%

    23 November, Friday

    Time Temperature Precipitation Wind Pressure Humidity
    00:00 +1°C° 0 mm 4 mps 747 mmHg 89%
    01:00 +1°C° 0 mm 4 mps 747 mmHg 89%
    02:00 +1°C° 0 mm 4 mps 746 mmHg 88%
    03:00 0°C° 0 mm 4 mps 746 mmHg 88%
    04:00 0°C° 0 mm 4 mps 746 mmHg 88%
    05:00 0°C° 0 mm 4 mps 746 mmHg 88%
    06:00 0°C° 0 mm 5 mps 746 mmHg 89%
    07:00 +1°C° 0 mm 5 mps 746 mmHg 88%
    08:00 +1°C° 0 mm 5 mps 746 mmHg 88%
    09:00 +2°C° 0 mm 5 mps 746 mmHg 88%
    10:00 +3°C° 0 mm 5 mps 746 mmHg 88%
    11:00 +5°C° 0 mm 5 mps 746 mmHg 88%
    12:00 +6°C° 0 mm 5 mps 746 mmHg 88%
    13:00 +6°C° 0.1 mm 5 mps 746 mmHg 89%
    14:00 +6°C° 0.1 mm 5 mps 746 mmHg 90%
    15:00 +6°C° 0.1 mm 5 mps 746 mmHg 90%
    16:00 +6°C° 0.1 mm 5 mps 746 mmHg 91%
    17:00 +6°C° 0.1 mm 5 mps 746 mmHg 92%
    18:00 +6°C° 0.1 mm 5 mps 746 mmHg 93%
    19:00 +6°C° 0.2 mm 5 mps 746 mmHg 93%
    20:00 +6°C° 0.2 mm 5 mps 746 mmHg 93%
    21:00 +5°C° 0.2 mm 6 mps 746 mmHg 93%
    22:00 +6°C° 0.1 mm 5 mps 746 mmHg 93%
    23:00 +6°C° 0.1 mm 5 mps 746 mmHg 93%
    Show more